Location: Newark
(13.4667°N, 16.6000°W)
Time: 17:25:32
(UTC+00:00)

Hubble Space Telescope - Visible Passes

Search period start: 23 September 2019 00:00
Search period end: 03 October 2019 00:00
Orbit: 536 x 540 km, 28.5° (Epoch: 22 September)

Date Brightness Start Highest point End Pass type
(mag) Time Alt. Az. Time Alt. Az. Time Alt. Az.
23 Sep 2.1 05:41:58 20° NNW 05:44:10 33° NNE 05:47:55 10° E visible
23 Sep 3.6 21:01:12 10° SW 21:01:30 12° SW 21:01:30 12° SW visible
24 Sep 1.6 05:32:25 33° NNW 05:33:40 44° NNE 05:37:36 10° E visible
24 Sep 2.8 20:50:25 10° SW 20:52:04 22° SW 20:52:04 22° SW visible
25 Sep 1.0 05:22:56 58° N 05:23:09 59° NNE 05:27:13 10° ESE visible
25 Sep 1.7 20:39:45 10° WSW 20:42:37 42° SW 20:42:37 42° SW visible
26 Sep 1.4 05:13:29 54° ESE 05:13:29 54° ESE 05:16:44 10° ESE visible
26 Sep 0.7 20:29:10 10° WSW 20:33:08 79° WNW 20:33:08 79° WNW visible
27 Sep 2.4 05:04:03 29° SE 05:04:03 29° SE 05:06:09 10° ESE visible
27 Sep 1.1 20:18:41 10° WSW 20:22:46 60° NNW 20:23:36 48° NNE visible
28 Sep 3.3 04:54:37 16° SE 04:54:37 16° SE 04:55:29 10° SE visible
28 Sep 1.6 20:08:17 10° W 20:12:14 44° NNW 20:13:59 27° NNE visible
29 Sep 2.1 19:57:58 10° W 20:01:44 34° NNW 20:04:18 17° NE visible
30 Sep 2.5 19:47:43 10° W 19:51:15 27° NNW 19:54:32 11° NE visible
01 Oct 2.8 19:37:33 10° WNW 19:40:47 22° NNW 19:44:00 10° NNE visible
02 Oct 3.0 19:27:27 10° WNW 19:30:20 18° NNW 19:33:14 10° NNE visible
